GW3011 Weather Reports


time (UTC)temp
C
wind
direction
speed
KPH
gust
KPH
rain 1hr
cm
rain 24hr
cm
rain mn
cm
humidity
%
barometer
mb
20260504110636 10 181 9.7 14.5 0.00 0.00 0.00 62 1013.3
20260504110131 10 307 4.8 6.4 0.00 0.00 0.00 62 1013.6
20260504100551 10 251 1.6 3.2 0.00 0.00 0.00 53 1013.3
20260504081945 11 304 1.6 1.6 0.00 0.00 0.00 53 1013.0
20260504081442 11 164 3.2 6.4 0.00 0.00 0.00 53 1012.9
20260504080938 11 285 1.6 1.6 0.00 0.00 0.00 54 1012.8
20260504080435 11 305 0.0 0.0 0.00 0.00 0.00 53 1012.7
20260504070403 11 212 3.2 4.8 0.00 0.00 0.00 51 1012.5
20260504050750 12 182 8.0 12.9 0.00 0.00 0.00 47 1012.2
20260504050247 12 205 8.0 12.9 0.00 0.00 0.00 47 1012.1
20260504045744 12 306 0.0 0.0 0.00 0.00 0.00 47 1012.2
20260504045239 12 254 3.2 4.8 0.00 0.00 0.00 47 1012.3
20260504044737 12 200 0.0 3.2 0.00 0.00 0.00 46 1012.3
20260504044234 12 251 6.4 9.7 0.00 0.00 0.00 46 1012.0
20260504043731 12 219 4.8 9.7 0.00 0.00 0.00 46 1012.0
20260504043228 12 161 6.4 9.7 0.00 0.00 0.00 46 1012.2
20260504042726 12 287 4.8 6.4 0.00 0.00 0.00 46 1012.2
20260504042222 12 260 3.2 4.8 0.00 0.00 0.00 46 1012.0
20260504041718 12 165 6.4 14.5 0.00 0.00 0.00 46 1012.1
20260504041214 12 305 1.6 1.6 0.00 0.00 0.00 46 1012.0
20260504040711 12 212 9.7 14.5 0.00 0.00 0.00 45 1011.8
20260504040208 12 218 6.4 11.3 0.00 0.00 0.00 45 1012.0
20260504035704 12 206 3.2 6.4 0.00 0.00 0.00 45 1011.9
20260504035202 12 184 4.8 6.4 0.00 0.00 0.00 45 1012.0
20260504034659 12 215 4.8 11.3 0.00 0.00 0.00 44 1011.9
20260504034156 12 227 3.2 4.8 0.00 0.00 0.00 44 1012.0
20260504033654 13 275 4.8 6.4 0.00 0.00 0.00 44 1012.1
20260504033151 13 316 3.2 3.2 0.00 0.00 0.00 43 1011.8
20260504032647 13 209 4.8 9.7 0.00 0.00 0.00 43 1011.7
20260504032144 12 329 4.8 11.3 0.00 0.00 0.00 43 1011.8
20260504031642 13 307 0.0 1.6 0.00 0.00 0.00 43 1011.6
20260504031138 13 183 9.7 12.9 0.00 0.00 0.00 43 1011.7
20260504030635 13 269 8.0 11.3 0.00 0.00 0.00 43 1011.7
20260504030131 13 238 3.2 4.8 0.00 0.00 0.00 43 1011.8
20260504025628 13 310 3.2 4.8 0.00 0.00 0.00 41 1011.7
20260504025125 13 203 3.2 4.8 0.00 0.00 0.00 41 1011.6
20260504024622 13 174 9.7 12.9 0.00 0.00 0.00 41 1011.6
20260504024119 13 190 1.6 3.2 0.00 0.00 0.00 41 1011.7
20260504023616 13 266 1.6 1.6 0.00 0.00 0.00 40 1011.8
20260504023111 13 305 1.6 1.6 0.00 0.00 0.00 40 1011.9
20260504022608 13 207 8.0 12.9 0.00 0.00 0.00 40 1011.7
20260504022104 13 162 3.2 6.4 0.00 0.00 0.00 40 1011.9
20260504021602 13 294 6.4 6.4 0.00 0.00 0.00 39 1011.8
20260504021058 13 181 8.0 9.7 0.00 0.00 0.00 40 1011.7
20260504020555 13 179 4.8 6.4 0.00 0.00 0.00 40 1011.6
20260504020051 13 283 1.6 3.2 0.00 0.00 0.00 41 1011.9
20260504015548 13 268 4.8 6.4 0.00 0.00 0.00 41 1011.9
20260504015044 13 276 1.6 3.2 0.00 0.00 0.00 39 1011.7
20260504014540 13 210 3.2 3.2 0.00 0.00 0.00 39 1011.6
20260504014038 13 313 0.0 1.6 0.00 0.00 0.00 38 1012.0
20260504013535 13 191 4.8 4.8 0.00 0.00 0.00 37 1011.6
20260504013032 13 288 3.2 3.2 0.00 0.00 0.00 37 1011.4
20260504012529 14 226 3.2 4.8 0.00 0.00 0.00 37 1011.5
20260504012022 14 249 3.2 6.4 0.00 0.00 0.00 37 1011.6
20260504011518 14 220 1.6 3.2 0.00 0.00 0.00 36 1011.4
20260504011014 14 90 4.8 6.4 0.00 0.00 0.00 36 1011.2
20260504010510 14 0 1.6 3.2 0.00 0.00 0.00 36 1011.2
20260504010006 14 317 4.8 6.4 0.00 0.00 0.00 36 1011.0
20260504005503 14 231 1.6 3.2 0.00 0.00 0.00 36 1011.3
20260504005001 14 286 1.6 4.8 0.00 0.00 0.00 37 1011.1
20260504004458 14 265 1.6 3.2 0.00 0.00 0.00 37 1010.8
20260504003955 14 298 1.6 1.6 0.00 0.00 0.00 37 1010.9
20260504003451 14 239 1.6 1.6 0.00 0.00 0.00 37 1010.9
20260504002948 14 283 1.6 1.6 0.00 0.00 0.00 38 1010.8
20260504002445 15 191 6.4 6.4 0.00 0.00 0.00 38 1010.8
20260504001942 15 170 8.0 11.3 0.00 0.00 0.00 37 1010.6
20260504001440 15 208 11.3 20.9 0.00 0.00 0.00 37 1010.4
20260504000936 15 185 3.2 4.8 0.00 0.00 0.00 36 1010.5
20260504000433 15 197 6.4 9.7 0.00 0.00 0.00 38 1010.5
20260503235930 15 193 6.4 11.3 0.00 0.00 0.00 38 1010.4
20260503235428 15 343 1.6 1.6 0.00 0.00 0.00 37 1010.5
20260503234925 15 265 4.8 4.8 0.00 0.00 0.00 35 1010.2
20260503234423 15 266 3.2 3.2 0.00 0.00 0.00 33 1010.0
20260503233921 15 293 1.6 1.6 0.00 0.00 0.00 33 1010.2
20260503233417 15 267 1.6 3.2 0.00 0.00 0.00 33 1010.1
20260503232913 15 262 6.4 9.7 0.00 0.00 0.00 32 1010.0
20260503232411 15 288 6.4 9.7 0.00 0.00 0.00 33 1010.0
20260503231908 15 217 4.8 6.4 0.00 0.00 0.00 32 1009.8
20260503231405 15 292 3.2 4.8 0.00 0.00 0.00 33 1009.8
20260503230901 15 258 8.0 9.7 0.00 0.00 0.00 32 1009.9
20260503230358 15 259 3.2 4.8 0.00 0.00 0.00 33 1009.7
20260503225856 15 263 4.8 6.4 0.00 0.00 0.00 30 1010.0
20260503225352 15 236 4.8 9.7 0.00 0.00 0.00 30 1009.7
20260503224848 15 259 3.2 3.2 0.00 0.00 0.00 31 1009.6
20260503224345 16 250 8.0 11.3 0.00 0.00 0.00 30 1009.8
20260503223843 16 278 6.4 6.4 0.00 0.00 0.00 29 1009.9
20260503223341 16 276 14.5 17.7 0.00 0.00 0.00 28 1009.7
20260503222836 16 290 4.8 6.4 0.00 0.00 0.00 29 1009.9
20260503222335 15 322 6.4 12.9 0.00 0.00 0.00 28 1009.4
20260503221832 15 249 6.4 11.3 0.00 0.00 0.00 29 1009.5
20260503221331 15 313 6.4 6.4 0.00 0.00 0.00 29 1009.7
20260503220826 16 287 6.4 9.7 0.00 0.00 0.00 28 1009.6
20260503220324 16 309 6.4 6.4 0.00 0.00 0.00 28 1009.7
20260503215820 15 170 8.0 9.7 0.00 0.00 0.00 27 1009.8
20260503215318 15 152 4.8 6.4 0.00 0.00 0.00 29 1009.9
20260503214815 15 250 9.7 12.9 0.00 0.00 0.00 28 1009.8
20260503214312 15 234 12.9 14.5 0.00 0.00 0.00 29 1009.8
20260503213810 15 282 11.3 14.5 0.00 0.00 0.00 29 1009.5
20260503213307 15 249 12.9 14.5 0.00 0.00 0.00 29 1009.9
20260503212758 15 243 4.8 6.4 0.00 0.00 0.00 29 1009.7
20260503212256 15 266 6.4 9.7 0.00 0.00 0.00 32 1009.4
20260503211753 15 281 8.0 9.7 0.00 0.00 0.00 29 1009.6
20260503211250 15 276 8.0 12.9 0.00 0.00 0.00 31 1009.4
20260503210744 15 250 11.3 14.5 0.00 0.00 0.00 30 1009.6
20260503210242 15 300 6.4 11.3 0.00 0.00 0.00 31 1009.7
20260503205743 15 272 8.0 9.7 0.00 0.00 0.00 30 1009.4
20260503205239 15 283 9.7 11.3 0.00 0.00 0.00 30 1009.5
20260503204736 15 237 14.5 17.7 0.00 0.00 0.00 31 1009.7
20260503204233 15 174 8.0 11.3 0.00 0.00 0.00 32 1009.3
20260503203731 15 259 6.4 9.7 0.00 0.00 0.00 29 1009.5
20260503203228 15 275 14.5 17.7 0.00 0.00 0.00 30 1009.7
20260503202725 15 227 17.7 24.1 0.00 0.00 0.00 31 1009.8
20260503202223 15 207 8.0 9.7 0.00 0.00 0.00 31 1009.6
20260503201721 15 151 9.7 14.5 0.00 0.00 0.00 32 1009.6
20260503201218 15 256 9.7 12.9 0.00 0.00 0.00 31 1009.6
20260503200714 15 241 9.7 12.9 0.00 0.00 0.00 31 1009.9
20260503200211 15 254 3.2 3.2 0.00 0.00 0.00 32 1009.8
20260503195707 15 275 3.2 4.8 0.00 0.00 0.00 33 1009.7
20260503195205 14 268 8.0 11.3 0.00 0.00 0.00 32 1009.9
20260503194701 14 259 8.0 9.7 0.00 0.00 0.00 33 1009.9
20260503194157 15 277 8.0 12.9 0.00 0.00 0.00 32 1009.9
20260503193654 13 258 6.4 9.7 0.00 0.00 0.00 33 1010.1
20260503193149 14 312 11.3 14.5 0.00 0.00 0.00 33 1009.9
20260503192645 14 310 8.0 12.9 0.00 0.00 0.00 32 1009.9
20260503192141 14 244 12.9 14.5 0.00 0.00 0.00 33 1010.1
20260503191638 14 216 6.4 11.3 0.00 0.00 0.00 33 1010.1
20260503191135 13 199 9.7 12.9 0.00 0.00 0.00 34 1010.1
20260503190632 13 233 16.1 20.9 0.00 0.00 0.00 35 1010.1
20260503190129 14 235 8.0 11.3 0.00 0.00 0.00 34 1010.2
20260503185625 14 259 6.4 9.7 0.00 0.00 0.00 34 1010.1
20260503185120 13 215 11.3 22.5 0.00 0.00 0.00 35 1010.2
20260503184610 12 243 9.7 12.9 0.00 0.00 0.00 37 1010.4
20260503184107 13 261 9.7 12.9 0.00 0.00 0.00 36 1010.5
20260503183603 13 200 8.0 9.7 0.00 0.00 0.00 36 1010.6
20260503183101 12 286 4.8 4.8 0.00 0.00 0.00 37 1010.6
20260503182559 12 253 9.7 12.9 0.00 0.00 0.00 38 1010.8
20260503182057 13 234 11.3 14.5 0.00 0.00 0.00 36 1010.5
20260503181554 12 274 6.4 9.7 0.00 0.00 0.00 38 1010.5
20260503181050 12 248 9.7 14.5 0.00 0.00 0.00 39 1010.9
20260503180547 12 259 8.0 11.3 0.00 0.00 0.00 38 1010.5
20260503180045 12 295 8.0 11.3 0.00 0.00 0.00 38 1010.7
20260503175542 12 296 11.3 14.5 0.00 0.00 0.00 39 1010.7
20260503175039 12 275 9.7 16.1 0.00 0.00 0.00 40 1010.7
20260503174536 12 316 6.4 9.7 0.00 0.00 0.00 39 1010.6
20260503174032 11 280 4.8 4.8 0.00 0.00 0.00 41 1010.4
20260503173527 12 229 11.3 20.9 0.00 0.00 0.00 41 1010.7
20260503173024 11 218 9.7 14.5 0.00 0.00 0.00 40 1010.6
20260503172522 11 239 9.7 12.9 0.00 0.00 0.00 40 1010.6
20260503172018 11 212 9.7 11.3 0.00 0.00 0.00 41 1010.7
20260503171515 11 244 6.4 11.3 0.00 0.00 0.00 40 1010.8
20260503171012 11 260 8.0 9.7 0.00 0.00 0.00 40 1010.7
20260503170508 11 262 6.4 9.7 0.00 0.00 0.00 41 1010.8
20260503150901 11 285 3.2 3.2 0.00 0.00 0.00 40 1011.2
20260503150357 10 295 6.4 9.7 0.00 0.00 0.00 40 1011.0
20260503131250 10 238 6.4 9.7 0.00 0.00 0.00 50 1011.4
20260503130748 10 299 3.2 4.8 0.00 0.00 0.00 52 1011.3
20260503130245 9 278 4.8 4.8 0.00 0.00 0.00 52 1011.5
20260503120211 8 251 6.4 9.7 0.00 0.00 0.00 54 1011.1